Regional Weather Roundup
Issued by NWS

Home | Current Version | Previous Version | Text Only | Print | Product List | Glossary On
Versions: 1 2 3 4 5 6 7 8 9 10 11 12 13 14 15 16 17 18 19 20 21 22 23 24 25 26 27 28 29 30 31 32 33 34 35 36 37 38 39 40 41 42 43 44 45 46 47 48 49 50
164
ASUS45 KREV 171510
RWRNV
NEVADA REGIONAL WEATHER ROUNDUP
NATIONAL WEATHER SERVICE RENO NV
800 AM PDT TUE OCT 17 2017

NOTE: "FAIR" INDICATES FEW OR NO CLOUDS BELOW 12,000 FEET WITH NO
SIGNIFICANT WEATHER AND/OR OBSTRUCTIONS TO VISIBILITY.

NVZ001-003-004-171600-
WESTERN NEVADA

CITY           SKY/WX    TMP DP  RH WIND       PRES   REMARKS
RENO           MOCLDY    39  26  59 CALM      30.26R
CARSON CITY    FAIR      36  18  48 CALM      30.26S
MINDEN         FAIR      27  14  59 CALM      30.27R
FALLON         MOCLDY    37  24  59 SW3       30.23R
LOVELOCK       MOCLDY    28  15  58 E3        30.23R
HAWTHORNE      CLEAR     43  12  28 CALM      30.25R
$$

NVZ002-CAZ072-073-171600-
NORTHERN AND CENTRAL SIERRA

CITY           SKY/WX    TMP DP  RH WIND       PRES   REMARKS
S. LAKE TAHOE  CLEAR     28  20  71 VRB3      30.32R
TRUCKEE        PTCLDY    25  18  74 CALM      30.32S
SQUAW VLY 8000   N/A     48   9  20 SW15        N/A
SUSANVILLE     CLEAR     34  21  60 SW6       30.25R
BLUE CANYON    CLEAR     58  14  17 SE3       30.30R
MAMMOTH LAKES  FAIR      28   9  43 N3        30.39R
BRIDGEPORT     MOCLDY    28  13  53 CALM      30.33S
$$

NVZ030-031-036-171600-
NORTHERN NEVADA

CITY           SKY/WX    TMP DP  RH WIND       PRES   REMARKS
ELKO           CLOUDY    31  17  56 E3        30.30R
WINNEMUCCA     CLOUDY    29  11  47 CALM      30.23S
WENDOVER         N/A     36  19  50 CALM      30.31R
$$

NVZ035-037-171600-
CENTRAL NEVADA

CITY           SKY/WX    TMP DP  RH WIND       PRES   REMARKS
ELY            PTSUNNY   34   1  24 S12       30.34R
EUREKA           N/A     36   6  28 SW8       30.30S
$$

NVZ013-014-171600-
SOUTH CENTRAL NEVADA

CITY           SKY/WX    TMP DP  RH WIND       PRES   REMARKS
TONOPAH        PTSUNNY   38  -3  17 N6        30.31R
$$

NVZ017-020-022-171600-
SOUTHERN NEVADA

CITY           SKY/WX    TMP DP  RH WIND       PRES   REMARKS
LAS VEGAS      MOSUNNY   60  13  15 SW6       30.15R
N. LAS VEGAS   SUNNY     58  19  22 NW5       30.15R
NELLIS AFB     SUNNY     51   8  17 W3        30.15R
HENDERSON      SUNNY     58  10  15 S7        30.18R
MERCURY        SUNNY     50   4  15 CALM      30.19R
$$




USA.gov is the U.S. government's official web portal to all federal, state and local government web resources and services.